This is the latest recevied weather packets stored in our database for station/object NY3Q. If no packets are shown the sender has not sent any weather packets the latest 10 day(s).
| Time | Temp. | Humidity | Pressure | Rain* | Wind** | Luminosity | Snow |
|---|---|---|---|---|---|---|---|
| 1777835321 | 22.78° C | 48% | 1019.2 hPa | 0 mm | - | 569 W/m² | - |
| 1777835018 | 22.78° C | 47% | 1018.9 hPa | 0 mm | - | 577 W/m² | - |
| 1777834715 | 22.78° C | 46% | 1019.2 hPa | 0 mm | - | 488 W/m² | - |
| 1777834411 | 22.78° C | 48% | 1019.2 hPa | 0 mm | - | 183 W/m² | - |
| 1777834111 | 22.78° C | 50% | 1019.1 hPa | 0 mm | - | 658 W/m² | - |
| 1777833807 | 22.22° C | 52% | 1019.4 hPa | 0 mm | - | 605 W/m² | - |
| 1777833503 | 23.33° C | 49% | 1019.3 hPa | 0 mm | - | 163 W/m² | - |
| 1777833201 | 22.78° C | 49% | 1019.2 hPa | 0 mm | - | 676 W/m² | - |
| 1777832898 | 22.78° C | 50% | 1019.3 hPa | 0 mm | - | 661 W/m² | - |
| 1777832597 | 22.78° C | 48% | 1019.4 hPa | 0 mm | - | 361 W/m² | - |
| 1777832294 | 22.22° C | 53% | 1019.4 hPa | 0 mm | - | 681 W/m² | - |
| 1777831991 | 22.78° C | 50% | 1019.4 hPa | 0 mm | - | 670 W/m² | - |
| 1777831687 | 22.78° C | 53% | 1019.5 hPa | 0 mm | - | 665 W/m² | - |
| 1777831386 | 22.22° C | 56% | 1019.5 hPa | 0 mm | - | 244 W/m² | - |
| 1777831081 | 21.67° C | 55% | 1019.4 hPa | 0 mm | - | 689 W/m² | - |
| 1777830780 | 22.22° C | 55% | 1019.5 hPa | 0 mm | - | 126 W/m² | - |
| 1777830475 | 22.78° C | 56% | 1019.7 hPa | 0 mm | - | 740 W/m² | - |
| 1777830174 | 22.78° C | 53% | 1019.6 hPa | 0 mm | - | 162 W/m² | - |
| 1777829873 | 22.22° C | 58% | 1019.5 hPa | 0 mm | - | 682 W/m² | - |
| 1777829570 | 22.22° C | 55% | 1019.8 hPa | 0 mm | - | 685 W/m² | - |
| 1777829267 | 22.78° C | 55% | 1019.6 hPa | 0 mm | - | 672 W/m² | - |
| 1777828964 | 22.22° C | 54% | 1019.5 hPa | 0 mm | - | 669 W/m² | - |
| 1777828660 | 22.22° C | 53% | 1019.8 hPa | 0 mm | - | 665 W/m² | - |
| 1777828357 | 22.22° C | 58% | 1019.9 hPa | 0 mm | - | 665 W/m² | - |
| 1777828054 | 22.22° C | 56% | 1019.9 hPa | 0 mm | - | 668 W/m² | - |
* Rain latest hour (hover to see other rain measurements)
** Current wind speed in m/s (hover to see current wind gust speed)